Location: Henry Coe State Park
(37.1875°N, 121.5503°W)
Time: 16:37:38
(UTC-08:00)

Daily predictions for brighter satellites

Satellite Brightness Start Highest point End
(mag) Time Altitude Azimuth Time Altitude Azimuth Time Altitude Azimuth
Cosmos 1980 Rocket 2.2 18:06:36 10° NNW 18:12:18 81° ENE 18:18:00 10° SSE
Okean 3 3.6 18:12:38 10° N 18:16:57 82° W 18:21:12 10° S
Cosmos 1190 Rocket 4.5 18:12:35 10° S 18:17:21 39° E 18:22:09 10° NE
Cosmos 1745 Rocket 4.1 18:11:56 10° S 18:18:11 63° E 18:24:23 10° NNE
SJ-6B 3.8 18:15:13 10° SE 18:18:39 27° ENE 18:22:03 10° NNE
SL-8 R/B 3.8 18:14:19 10° NW 18:19:06 61° NNE 18:23:53 10° ESE
NOAA 12 4.4 18:14:35 10° SE 18:19:37 46° ENE 18:24:42 10° N
ALOS 3.4 18:17:03 10° ESE 18:20:37 22° ENE 18:24:12 10° NNE
BREEZE-M DEB (TANK) 4.2 18:11:57 10° WNW 18:22:42 48° NNE 18:26:04 10° E
Cosmos 1484 Rocket 3.7 18:21:11 10° S 18:25:05 54° W 18:28:58 10° NNW
PSLV R/B 3.6 18:22:24 10° WNW 18:25:30 57° SSW 18:28:37 10° SE
GEOS 3 Rocket 3.7 18:20:36 10° NE 18:25:47 60° ESE 18:31:00 10° SSW
Cosmos 1461 4.2 18:27:22 10° N 18:30:20 20° NE 18:33:03 11° E
Meteor 1-14 Rocket 4.5 18:25:37 10° S 18:31:33 87° W 18:37:34 10° N
Cosmos 1386 Rocket 4.5 18:26:43 10° S 18:32:45 61° E 18:38:43 10° NNE
ASTRO E2 3.9 18:29:50 10° WSW 18:33:30 34° S 18:37:11 10° ESE
Cosmos 2292 Rocket 4.5 18:31:58 10° SSE 18:36:09 38° E 18:41:40 10° NNE
Cosmos 1633 4.0 18:33:47 10° SE 18:36:21 18° E 18:38:57 10° NE
HJ-1C 4.5 18:35:08 10° SE 18:37:55 24° ENE 18:40:44 10° NNE
SL-16 R/B 2.4 18:37:10 10° NNW 18:42:41 50° ENE 18:48:10 10° SE
Meteor 1-20 Rocket 4.2 18:40:34 10° S 18:46:21 76° E 18:52:12 10° NNE
Cosmos 1975 Rocket 3.6 18:42:58 10° NNW 18:47:13 60° W 18:51:28 10° S
Okean 1 3.6 18:45:55 10° N 18:49:49 46° E 18:53:44 10° SSE
Cosmos 44 Rocket 3.3 18:45:53 10° NNW 18:50:39 80° WSW 18:55:17 10° SSE
Cosmos 1340 3.7 18:48:08 10° NNE 18:51:18 25° ENE 18:53:13 17° ESE
Tiangong 2 2.0 18:50:49 10° NW 18:53:39 33° N 18:54:54 23° ENE
CENTAUR R/B 3.5 18:48:04 10° NW 18:56:01 71° WSW 19:04:21 10° SSE
CZ-2D R/B 4.3 18:57:59 23° ENE 18:58:06 23° ENE 19:01:09 10° NNE
Cosmos 2322 Rocket 2.1 18:56:26 10° NNW 19:02:04 76° ENE 19:07:40 10° SSE
Cosmos 1536 Rocket 3.5 19:01:37 10° N 19:06:04 62° E 19:10:29 10° SSE
Resurs 01 Rocket 1.7 19:02:09 10° SSE 19:06:25 50° ENE 19:10:40 10° N
Helios 1B rocket 3.3 19:09:41 28° ESE 19:09:41 28° ESE 19:12:50 10° SSE
Cosmos 1818 3.5 19:04:58 10° SSW 19:10:24 81° ESE 19:15:53 10° NNE
SL-19 R/B 4.3 19:05:23 10° SSE 19:10:52 63° ENE 19:16:40 10° N
H-2A R/B 2.9 19:09:04 22° SE 19:11:06 44° ENE 19:14:40 10° N
Cosmos 2322 4.5 19:06:12 10° N 19:11:13 30° ENE 19:12:40 27° E
Cosmos 44 3.4 19:14:31 10° NW 19:18:53 64° WSW 19:23:06 10° SSE
Meteor 2-4 Rocket 4.1 19:16:13 10° N 19:21:21 36° ENE 19:22:25 33° E
COSMOS 2428 4.1 19:17:43 10° N 19:21:04 20° NE 19:21:04 20° NE
Cosmos 1812 4.3 19:19:09 10° NNW 19:22:43 37° W 19:26:17 10° SSW
Meteor 1-11 Rocket 3.7 19:17:37 10° S 19:23:16 64° E 19:29:04 10° NNE
Cosmos 2181 Rocket 3.9 19:17:30 10° N 19:23:43 69° E 19:30:00 10° SSE
FENGYUN 3A 3.6 19:18:51 10° SSE 19:24:15 86° WSW 19:29:42 10° NNW
DNEPR-1 R/B 3.3 19:20:33 10° NNW 19:24:47 90° WSW 19:27:01 27° SSE
DELTA 2 R/B (1) 3.6 19:19:45 10° WNW 19:25:22 72° N 19:27:32 38° E
Resurs 1-3 3.5 19:29:22 10° SSE 19:33:44 86° E 19:38:09 10° NNW
Cosmos 676 Rocket 4.4 19:30:07 10° SSW 19:35:14 64° WNW 19:40:25 10° NNE
Cosmos 1023 Rocket 4.3 19:32:00 10° SSW 19:37:04 79° ESE 19:41:27 14° NNE
SL-08 ROCKET BODY 4.4 19:31:29 10° S 19:37:28 58° E 19:43:32 10° NNE
Cosmos 1300 Rocket 3.6 19:33:29 10° S 19:37:52 78° W 19:42:19 10° N
Cosmos 2184 Rocket 4.0 19:36:17 10° SSE 19:42:25 55° E 19:48:32 10° NNE
Cosmos 1602 4.3 19:39:49 10° SSW 19:43:35 56° W 19:47:26 10° N
Cosmos 2074 Rocket 3.9 19:37:47 10° S 19:43:53 59° E 19:50:02 10° NNE
Cosmos 2219 4.0 19:40:42 10° S 19:44:23 35° SSE 19:44:23 35° SSE
OAO 3 Copernicus 4.3 19:42:05 10° W 19:47:08 68° S 19:47:39 63° SE
Cosmos 2360 Rocket 2.0 19:49:53 10° NNW 19:55:34 80° ENE 19:56:25 65° SE
ALOS 3.9 19:53:38 10° SSW 19:57:50 33° W 20:02:03 10° NNW
Cosmos 2219 Rocket 4.1 19:55:27 10° N 19:56:49 15° NNE 19:56:49 15° NNE
ATLAS CENTAUR R/B 4.3 19:58:38 10° SSW 20:00:09 16° S 20:00:09 16° S
Okean 1 Rocket 3.9 20:00:42 10° SSW 20:05:02 50° W 20:09:25 10° N
Cosmos 1140 Rocket 4.0 20:00:52 10° SSW 20:05:53 55° WNW 20:09:53 16° N
Cosmos 1461 4.3 20:05:53 10° NW 20:09:33 34° WSW 20:09:36 34° WSW
Helios 1A 4.3 20:15:22 36° NW 20:15:22 36° NW 20:18:11 10° NNW
Cosmos 1850 Rocket 4.3 20:11:20 10° SSW 20:15:46 61° SW 20:15:46 61° SW
Cosmos 2333 Rocket 4.3 20:13:02 10° N 20:14:12 15° N 20:14:12 15° N
